{"data":{"norad_id":68832,"epoch":"2026-09-20T04:59:55.422240Z","epoch_age_seconds":81288,"freshness":"FRESH","line1":"1 68832U 26091B   26263.20828035  .00007006  00000+0  34465-3 0  9999","line2":"2 68832  55.0045 326.5382 0006859 280.2169  79.8077 15.19080800 22647","mean_motion":15.190808,"eccentricity":0.0006859,"inclination_deg":55.0045,"raan_deg":326.5382,"arg_perigee_deg":280.2169,"mean_anomaly_deg":79.8077,"bstar":0.00034465,"rev_number":2264,"period_min":94.794167630846,"perigee_km":503.89371823274,"apogee_km":513.34096784051,"semimajor_km":6886.7543430366,"source":"CELESTRAK","updated_at":"2026-09-20T09:00:24.495786Z"}}